View from above orbital plane
|
View from above satellite
|
Ground track
|
The orbit data is extracted from the following two-line orbital elements,
1 19046U 88032B 21058.81555135 -.00000328 00000-0 -19743-4 0 9993
2 19046 97.3925 74.3734 0039270 57.9589 302.5442 15.02864830775601
Epoch (UTC): | 27 February 2021 19:34:23 |
Eccentricity: | 0.0039270 |
inclination: | 97.3925° |
perigee height: | 531 km |
apogee height: | 585 km |
right ascension of ascending node: | 74.3734° |
argument of perigee: | 57.9589° |
revolutions per day: | 15.02864830 |
mean anomaly at epoch: | 302.5442° |
orbit number at epoch: | 77560 |
The dashed part of the orbit path shows where the satellite is in the earth's shadow,
|
|